This is the latest recevied weather packets stored in our database for station/object F4ETJ-1. If no packets are shown the sender has not sent any weather packets the latest 10 day(s).
| Time | Temp. | Humidity | Pressure | Rain* | Wind** | Luminosity | Snow |
|---|---|---|---|---|---|---|---|
| 1787765209 | 32.22° C | 38% | 1001.7 hPa | 0 mm | - | - | - |
| 1787764848 | 32.22° C | 39% | 1001.6 hPa | 0 mm | - | - | - |
| 1787764488 | 31.67° C | 41% | 1001.5 hPa | 0 mm | - | - | - |
| 1787764128 | 32.22° C | 40% | 1001.5 hPa | 0 mm | - | - | - |
| 1787763767 | 32.22° C | 40% | 1001.6 hPa | 0 mm | - | - | - |
| 1787763407 | 32.22° C | 40% | 1001.7 hPa | 0 mm | - | - | - |
| 1787763047 | 31.67° C | 40% | 1001.7 hPa | 0 mm | - | - | - |
| 1787762686 | 32.22° C | 40% | 1001.8 hPa | 0 mm | - | - | - |
| 1787762326 | 32.22° C | 39% | 1001.7 hPa | 0 mm | - | - | - |
| 1787761965 | 32.22° C | 38% | 1002 hPa | 0 mm | - | - | - |
| 1787761605 | 32.22° C | 38% | 1002.1 hPa | 0 mm | - | - | - |
| 1787761245 | 32.78° C | 37% | 1002.2 hPa | 0 mm | - | - | - |
| 1787760884 | 32.78° C | 37% | 1002.1 hPa | 0 mm | - | - | - |
| 1787760524 | 33.33° C | 35% | 1002.3 hPa | 0 mm | - | - | - |
| 1787760164 | 33.33° C | 34% | 1002.1 hPa | 0 mm | - | - | - |
| 1787759803 | 33.33° C | 33% | 1002.3 hPa | 0 mm | - | - | - |
| 1787759443 | 33.89° C | 33% | 1002.3 hPa | 0 mm | - | - | - |
| 1787759083 | 33.89° C | 34% | 1002.5 hPa | 0 mm | - | - | - |
| 1787758722 | 33.33° C | 35% | 1002.7 hPa | 0 mm | - | - | - |
| 1787758362 | 33.33° C | 38% | 1002.7 hPa | 0 mm | - | - | - |
| 1787758002 | 33.33° C | 37% | 1002.7 hPa | 0 mm | - | - | - |
| 1787757642 | 33.89° C | 37% | 1002.7 hPa | 0 mm | - | - | - |
| 1787757281 | 33.89° C | 38% | 1002.8 hPa | 0 mm | - | - | - |
| 1787756921 | 33.33° C | 37% | 1002.7 hPa | 0 mm | - | - | - |
| 1787756560 | 33.33° C | 39% | 1002.9 hPa | 0 mm | - | - | - |
* Rain latest hour (hover to see other rain measurements)
** Current wind speed in m/s (hover to see current wind gust speed)